Tracking 22881 objects as of 19-Apr-2021
HD Live streaming from Space Station
objects crossing your sky now

STARLINK-1777

Track STARLINK-1777 now!
10-day predictions
STARLINK-1777 is classified as:


NORAD ID: 47122
Int'l Code: 2020-088A
Perigee: 553.1 km
Apogee: 555.5 km
Inclination: 53.1 °
Period: 95.6 minutes
Semi major axis: 6925 km
RCS: Unknown
Launch date: November 25, 2020
Source: United States (US)
Launch site: AIR FORCE EASTERN TEST RANGE (AFETR)
aabbcc
Your satellite tracking list
Your tracking list is empty




NASA's NSSDC Master Catalog

Two Line Element Set (TLE):
1 47122U 20088A   21108.91667824 -.00021171  00000-0 -14062-2 0  9998
2 47122  53.0565  38.2735 0001691  61.1560  99.2124 15.06411016  1807
Source of the keplerian elements: AFSPC